Location: Mount Cross
(36.6390°N, 79.4878°W)
Time: 09:10:33
(UTC+00:00)

Tiros 1 - Pass Details

Date: 05 April 2023
Orbit: 627 x 661 km, 48.4° (Epoch: 02 June)

Event Time Altitude Azimuth Distance (km) Brightness Sun altitude
Exits shadow 08:01:15 23° 10° (N) 1,414 9.3 -33.2°
Drops below altitude 10° 08:03:54 10° 40° (NE) 2,075 10.6 -32.8°
Sets 08:06:36 0° 54° (NE) 2,990 11.7 -32.4°
